This is the latest recevied weather packets stored in our database for station/object K5WNG. If no packets are shown the sender has not sent any weather packets the latest 10 day(s).
| Time | Temp. | Humidity | Pressure | Rain* | Wind** | Luminosity | Snow |
|---|---|---|---|---|---|---|---|
| 1777641917 | 14.44° C | 99% | 1014.2 hPa | 2.03 mm | - | 14 W/m² | - |
| 1777641620 | 14.44° C | 99% | 1014.4 hPa | 1.78 mm | - | 13 W/m² | - |
| 1777641317 | 14.44° C | 99% | 1014.3 hPa | 1.02 mm | - | 9 W/m² | - |
| 1777641017 | 14.44° C | 99% | 1014.2 hPa | 1.02 mm | - | 8 W/m² | - |
| 1777640717 | 14.44° C | 99% | 1013.7 hPa | 1.02 mm | - | 9 W/m² | - |
| 1777640417 | 14.44° C | 99% | 1013.6 hPa | 2.03 mm | - | 7 W/m² | - |
| 1777640120 | 14.44° C | 99% | 1013.1 hPa | 3.56 mm | - | 9 W/m² | - |
| 1777639817 | 14.44° C | 99% | 1012.6 hPa | 4.83 mm | - | 11 W/m² | - |
| 1777639517 | 14.44° C | 99% | 1012.4 hPa | 5.59 mm | - | 12 W/m² | - |
| 1777639220 | 14.44° C | 99% | 1012.8 hPa | 5.84 mm | - | 9 W/m² | - |
| 1777638917 | 14.44° C | 99% | 1013.4 hPa | 6.1 mm | - | 8 W/m² | - |
| 1777638618 | 14.44° C | 99% | 1013.2 hPa | 6.1 mm | - | 10 W/m² | - |
| 1777638318 | 14.44° C | 99% | 1013.2 hPa | 6.1 mm | - | 8 W/m² | - |
| 1777638022 | 14.44° C | 99% | 1013.5 hPa | 6.6 mm | - | 3 W/m² | - |
| 1777637718 | 14.44° C | 99% | 1012.6 hPa | 7.37 mm | - | 4 W/m² | - |
| 1777637418 | 14.44° C | 99% | 1012.4 hPa | 7.62 mm | - | 4 W/m² | - |
| 1777637118 | 14.44° C | 99% | 1012.4 hPa | 7.62 mm | - | 1 W/m² | - |
| 1777636818 | 14.44° C | 99% | 1012.5 hPa | 6.86 mm | - | 1 W/m² | - |
| 1777636518 | 14.44° C | 99% | 1012.8 hPa | 5.59 mm | - | 0 W/m² | - |
| 1777636218 | 14.44° C | 99% | 1013.1 hPa | 4.83 mm | - | 0 W/m² | - |
| 1777635918 | 14.44° C | 99% | 1013.1 hPa | 4.57 mm | - | 0 W/m² | - |
| 1777635621 | 14.44° C | 99% | 1012 hPa | 5.59 mm | - | 0 W/m² | - |
| 1777635318 | 14.44° C | 99% | 1012 hPa | 6.35 mm | - | 0 W/m² | - |
| 1777635018 | 14.44° C | 99% | 1012.3 hPa | 7.11 mm | - | 0 W/m² | - |
| 1777634721 | 14.44° C | 99% | 1011.8 hPa | 7.62 mm | - | 0 W/m² | - |
* Rain latest hour (hover to see other rain measurements)
** Current wind speed in m/s (hover to see current wind gust speed)